• In Hungary
  • List of Countries
  • For 7 days
  • Water Temperature
  • Satellite Maps
  • Weather Map
  • News
  • Weather Widgets
  • user-avatar
    Login

    Hourly Weather Ghent

    Today, 20 September, Thursday

    Time Temperature Precipitation Wind Pressure Humidity
    00:00 +18°C° 0 mm 4 mps 762 mmHg 79%
    01:00 +18°C° 0 mm 4 mps 762 mmHg 81%
    02:00 +18°C° 0 mm 4 mps 762 mmHg 83%
    03:00 +17°C° 0 mm 4 mps 761 mmHg 85%
    04:00 +17°C° 0 mm 4 mps 761 mmHg 86%
    05:00 +17°C° 0 mm 4 mps 761 mmHg 88%
    06:00 +15°C° 0 mm 4 mps 761 mmHg 90%
    07:00 +17°C° 0 mm 5 mps 761 mmHg 84%
    08:00 +19°C° 0 mm 6 mps 761 mmHg 78%
    09:00 +21°C° 0 mm 7 mps 761 mmHg 72%
    10:00 +22°C° 0 mm 7 mps 761 mmHg 67%
    11:00 +23°C° 0 mm 7 mps 761 mmHg 62%
    12:00 +24°C° 0 mm 7 mps 760 mmHg 58%
    13:00 +24°C° 0 mm 6 mps 760 mmHg 56%
    14:00 +26°C° 0 mm 6 mps 759 mmHg 55%
    15:00 +26°C° 0 mm 6 mps 759 mmHg 54%
    16:00 +24°C° 0 mm 6 mps 758 mmHg 57%
    17:00 +23°C° 0 mm 5 mps 758 mmHg 61%
    18:00 +22°C° 0 mm 5 mps 757 mmHg 64%
    19:00 +22°C° 0 mm 5 mps 757 mmHg 62%
    20:00 +22°C° 0 mm 6 mps 756 mmHg 60%
    21:00 +22°C° 0 mm 6 mps 755 mmHg 58%
    22:00 +22°C° 0 mm 7 mps 755 mmHg 59%
    23:00 +21°C° 0 mm 7 mps 754 mmHg 60%

    Tomorrow, 21 September, Friday

    Time Temperature Precipitation Wind Pressure Humidity
    00:00 +21°C° 0 mm 7 mps 754 mmHg 62%
    01:00 +21°C° 0 mm 8 mps 753 mmHg 63%
    02:00 +19°C° 0 mm 9 mps 752 mmHg 64%
    03:00 +19°C° 0 mm 10 mps 751 mmHg 66%
    04:00 +18°C° 1.8 mm 10 mps 751 mmHg 70%
    05:00 +17°C° 1.8 mm 10 mps 751 mmHg 74%
    06:00 +16°C° 1.8 mm 10 mps 751 mmHg 79%
    07:00 +16°C° 0.1 mm 10 mps 753 mmHg 73%
    08:00 +16°C° 0.1 mm 10 mps 754 mmHg 68%
    09:00 +14°C° 0.1 mm 10 mps 755 mmHg 63%
    10:00 +16°C° 0.1 mm 10 mps 756 mmHg 59%
    11:00 +16°C° 0.1 mm 10 mps 757 mmHg 55%
    12:00 +16°C° 0.1 mm 10 mps 757 mmHg 51%
    13:00 +16°C° 0.1 mm 10 mps 758 mmHg 50%
    14:00 +16°C° 0.1 mm 10 mps 758 mmHg 48%
    15:00 +16°C° 0.1 mm 10 mps 759 mmHg 47%
    16:00 +15°C° 0.1 mm 9 mps 759 mmHg 50%
    17:00 +15°C° 0.1 mm 8 mps 760 mmHg 54%
    18:00 +14°C° 0.1 mm 7 mps 760 mmHg 57%
    19:00 +12°C° 0.1 mm 7 mps 761 mmHg 59%
    20:00 +12°C° 0.1 mm 7 mps 761 mmHg 61%
    21:00 +12°C° 0.1 mm 7 mps 762 mmHg 63%
    22:00 +12°C° 0 mm 7 mps 762 mmHg 65%
    23:00 +13°C° 0 mm 6 mps 763 mmHg 67%

    Day after tomorrow, 22 September, Saturday

    Time Temperature Precipitation Wind Pressure Humidity
    00:00 +11°C° 0 mm 6 mps 763 mmHg 68%
    01:00 +11°C° 0 mm 6 mps 763 mmHg 69%
    02:00 +11°C° 0 mm 6 mps 763 mmHg 70%
    03:00 +11°C° 0 mm 6 mps 764 mmHg 72%
    04:00 +12°C° 0 mm 5 mps 764 mmHg 72%
    05:00 +12°C° 0 mm 5 mps 764 mmHg 72%
    06:00 +12°C° 0 mm 5 mps 764 mmHg 73%
    07:00 +13°C° 0 mm 5 mps 765 mmHg 68%
    08:00 +14°C° 0 mm 5 mps 765 mmHg 64%
    09:00 +15°C° 0 mm 5 mps 765 mmHg 59%
    10:00 +16°C° 0 mm 5 mps 765 mmHg 58%
    11:00 +16°C° 0 mm 5 mps 765 mmHg 57%
    12:00 +16°C° 0 mm 5 mps 765 mmHg 57%
    13:00 +17°C° 0.1 mm 4 mps 765 mmHg 61%
    14:00 +15°C° 0.1 mm 4 mps 765 mmHg 65%
    15:00 +16°C° 0.1 mm 3 mps 765 mmHg 69%
    16:00 +14°C° 0.3 mm 3 mps 764 mmHg 74%
    17:00 +13°C° 0.3 mm 3 mps 764 mmHg 79%
    18:00 +13°C° 0.3 mm 2 mps 764 mmHg 84%
    19:00 +12°C° 0.4 mm 3 mps 764 mmHg 85%
    20:00 +12°C° 0.4 mm 3 mps 763 mmHg 86%
    21:00 +12°C° 0.4 mm 4 mps 763 mmHg 88%
    22:00 +12°C° 0.8 mm 5 mps 762 mmHg 86%
    23:00 +12°C° 0.8 mm 5 mps 760 mmHg 85%

    23 September, Sunday

    Time Temperature Precipitation Wind Pressure Humidity
    00:00 +11°C° 0.8 mm 6 mps 759 mmHg 84%
    01:00 +13°C° 0.7 mm 6 mps 758 mmHg 86%
    02:00 +15°C° 0.7 mm 7 mps 757 mmHg 88%
    03:00 +16°C° 0.7 mm 7 mps 756 mmHg 91%
    04:00 +17°C° 0.5 mm 8 mps 756 mmHg 91%
    05:00 +18°C° 0.5 mm 8 mps 755 mmHg 92%
    06:00 +20°C° 0.5 mm 8 mps 754 mmHg 92%
    07:00 +19°C° 0.5 mm 9 mps 754 mmHg 91%
    08:00 +21°C° 0.5 mm 10 mps 753 mmHg 89%
    09:00 +21°C° 0.5 mm 11 mps 752 mmHg 87%
    10:00 +21°C° 0.9 mm 11 mps 752 mmHg 87%
    11:00 +21°C° 0.9 mm 11 mps 752 mmHg 87%
    12:00 +21°C° 0.9 mm 11 mps 751 mmHg 87%
    13:00 +19°C° 1 mm 11 mps 751 mmHg 85%
    14:00 +19°C° 1 mm 11 mps 751 mmHg 83%
    15:00 +18°C° 1 mm 11 mps 751 mmHg 81%
    16:00 +16°C° 0.5 mm 11 mps 753 mmHg 82%
    17:00 +14°C° 0.5 mm 12 mps 754 mmHg 82%
    18:00 +12°C° 0.5 mm 13 mps 756 mmHg 82%
    19:00 +12°C° 0.1 mm 11 mps 759 mmHg 79%
    20:00 +11°C° 0.1 mm 9 mps 761 mmHg 77%
    21:00 +11°C° 0.1 mm 7 mps 764 mmHg 74%
    22:00 +11°C° 0.1 mm 7 mps 765 mmHg 74%
    23:00 +10°C° 0.1 mm 6 mps 766 mmHg 74%

    24 September, Monday

    Time Temperature Precipitation Wind Pressure Humidity
    00:00 +10°C° 0.1 mm 6 mps 768 mmHg 73%
    01:00 +10°C° 0.1 mm 6 mps 769 mmHg 74%
    02:00 +9°C° 0.1 mm 5 mps 769 mmHg 75%
    03:00 +9°C° 0.1 mm 5 mps 770 mmHg 76%
    04:00 +10°C° 0.1 mm 4 mps 771 mmHg 76%
    05:00 +10°C° 0.1 mm 4 mps 772 mmHg 76%
    06:00 +10°C° 0.1 mm 4 mps 773 mmHg 76%
    07:00 +11°C° 0.1 mm 4 mps 773 mmHg 72%
    08:00 +12°C° 0.1 mm 4 mps 774 mmHg 67%
    09:00 +13°C° 0.1 mm 5 mps 775 mmHg 62%
    10:00 +14°C° 0.1 mm 5 mps 775 mmHg 60%
    11:00 +14°C° 0.1 mm 5 mps 775 mmHg 57%
    12:00 +15°C° 0.1 mm 5 mps 776 mmHg 55%
    13:00 +15°C° 0.1 mm 5 mps 776 mmHg 55%
    14:00 +15°C° 0.1 mm 6 mps 776 mmHg 55%
    15:00 +14°C° 0.1 mm 6 mps 776 mmHg 55%
    16:00 +13°C° 0 mm 5 mps 776 mmHg 57%
    17:00 +12°C° 0 mm 4 mps 776 mmHg 60%
    18:00 +11°C° 0 mm 3 mps 776 mmHg 62%
    19:00 +10°C° 0 mm 3 mps 777 mmHg 64%
    20:00 +10°C° 0 mm 2 mps 777 mmHg 66%
    21:00 +9°C° 0 mm 2 mps 778 mmHg 68%
    22:00 +10°C° 0 mm 1 mps 778 mmHg 69%
    23:00 +10°C° 0 mm 1 mps 778 mmHg 71%

    25 September, Tuesday

    Time Temperature Precipitation Wind Pressure Humidity
    00:00 +10°C° 0 mm 1 mps 778 mmHg 72%
    01:00 +10°C° 0 mm 1 mps 778 mmHg 73%
    02:00 +9°C° 0 mm 1 mps 778 mmHg 74%
    03:00 +9°C° 0 mm 1 mps 778 mmHg 75%
    04:00 +9°C° 0 mm 1 mps 778 mmHg 75%
    05:00 +9°C° 0 mm 1 mps 778 mmHg 75%
    06:00 +9°C° 0 mm 1 mps 778 mmHg 75%
    07:00 +11°C° 0 mm 1 mps 778 mmHg 70%
    08:00 +13°C° 0 mm 1 mps 778 mmHg 64%
    09:00 +15°C° 0 mm 1 mps 778 mmHg 59%
    10:00 +15°C° 0 mm 1 mps 778 mmHg 56%
    11:00 +16°C° 0 mm 1 mps 778 mmHg 52%
    12:00 +17°C° 0 mm 2 mps 777 mmHg 49%
    13:00 +17°C° 0 mm 2 mps 777 mmHg 49%
    14:00 +18°C° 0 mm 2 mps 776 mmHg 49%
    15:00 +18°C° 0 mm 2 mps 776 mmHg 49%
    16:00 +16°C° 0 mm 2 mps 776 mmHg 54%
    17:00 +15°C° 0 mm 2 mps 775 mmHg 59%
    18:00 +13°C° 0 mm 2 mps 775 mmHg 65%
    19:00 +13°C° 0 mm 2 mps 775 mmHg 67%
    20:00 +12°C° 0 mm 2 mps 775 mmHg 70%
    21:00 +10°C° 0 mm 2 mps 776 mmHg 72%
    22:00 +10°C° 0 mm 2 mps 775 mmHg 73%
    23:00 +9°C° 0 mm 2 mps 775 mmHg 74%
    Show more